Lid_Strength_Index
4 4 4 3 3 3 3 4 4 4 4 4 3 3 3 3 3 6 8 7 10 11 9 8 7 9 9 10 12 9 9 9 9 12 12 12 13 11 12 10 11 13 14 15 14 16 17 7 8 11 9 8 8 8
4 3 3 3 3 3 3 3 3 3 3 3 3 3 4 4 3 4 10 7 6 8 9 6 6 6 6 6 9 9 9 9 8 11 11 10 11 11 11 14 9 13 11 13 12 13 8 7 8 7 7 8 7 8
4 3 2 3 3 2 2 3 3 3 3 3 3 3 3 4 3 4 9 8 9 11 9 9 8 6 5 5 5 10 7 6 8 6 9 9 12 9 13 12 10 9 8 11 11 10 8 7 6 6 6 6 6 6
2 2 2 2 2 2 2 2 3 3 3 3 3 3 3 3 3 4 8 8 9 10 12 10 5 7 5 6 6 5 6 6 6 6 8 10 11 9 11 10 10 9 9 9 10 9 8 7 6 5 5 5 6 5
3 2 2 1 2 2 2 2 3 3 3 3 2 3 3 3 2 4 6 7 7 8 10 10 8 5 6 6 6 5 6 7 8 8 9 11 9 9 10 10 11 8 9 10 12 8 8 8 7 6 6 6 6 5
2 2 2 1 1 1 1 1 1 2 2 2 1 2 2 2 2 6 8 6 4 6 9 12 8 7 6 5 5 6 6 6 8 9 10 10 8 10 11 12 9 7 7 8 9 7 7 6 6 5 6 5 4 4
2 2 2 1 1 1 0 1 1 1 1 1 0 0 0 0 4 6 7 3 2 4 7 11 11 7 6 6 6 6 6 7 8 9 10 9 10 9 11 12 8 7 6 7 6 6 7 6 7 5 4 4 3 4
1 1 2 1 1 0 0 -0 -0 0 0 0 -0 -0 -0 -0 2 5 5 1 1 4 6 10 11 9 5 8 9 7 8 8 8 8 9 9 9 9 11 9 7 6 6 7 6 6 6 6 5 4 4 4 5 5
1 1 1 1 1 0 -0 -0 -0 0 0 0 -0 -0 3 4 5 5 -1 -0 1 4 9 8 12 12 5 7 7 7 8 10 8 10 9 9 10 12 9 8 7 6 6 7 7 6 6 5 5 5 5 5 6 6
1 0 1 1 1 0 -0 -0 0 1 0 0 3 4 7 4 -0 -0 3 5 6 6 7 10 8 11 7 8 9 9 8 10 12 10 8 10 11 8 7 7 6 6 6 6 6 7 6 6 6 6 6 6 5 5
0 0 0 0 1 0 -0 0 0 0 0 3 5 6 2 -1 3 5 8 9 8 10 9 9 9 11 6 10 9 7 10 9 13 11 10 12 12 8 6 6 5 5 6 5 5 5 5 5 6 6 5 5 5 5
-0 -0 0 0 1 1 -0 0 -0 1 2 3 3 2 3 5 6 9 10 9 9 11 9 10 9 9 9 6 8 9 11 10 13 9 11 13 10 7 6 5 5 5 4 4 5 5 5 5 5 5 6 5 6 5
-1 -0 0 0 1 1 -0 -0 -1 -0 1 2 4 6 7 7 11 12 13 11 11 8 7 7 9 9 7 6 8 9 12 12 8 12 13 11 8 6 6 5 5 4 5 5 5 5 5 5 5 5 5 5 5 5
-1 -0 0 1 1 -0 -1 -1 -1 1 3 6 7 10 10 10 10 11 11 9 7 7 7 7 8 9 7 9 9 12 10 9 13 14 13 10 8 6 5 4 5 5 5 5 5 5 5 5 5 4 5 5 5 6
0 1 1 0 -1 -1 -1 -1 -1 1 5 7 7 11 10 8 7 6 6 6 6 6 7 7 8 8 9 10 9 10 12 14 12 13 11 8 7 6 5 5 6 6 6 6 5 5 4 4 5 5 5 5 5 5
1 0 1 -0 -1 -1 -1 -1 1 2 4 6 7 9 7 8 8 7 7 7 5 6 7 8 9 10 11 10 12 13 13 14 11 10 9 8 7 7 6 5 6 6 6 6 5 4 4 4 5 5 5 5 5 5
1 2 -0 -0 -1 -1 -1 3 3 6 7 7 9 7 7 7 7 7 6 6 5 6 9 9 12 12 9 11 13 10 12 10 9 8 7 6 6 5 5 5 5 5 5 5 5 5 4 4 4 5 6 5 5 4
2 0 -1 -1 0 1 2 3 5 7 8 8 9 9 8 6 7 6 5 6 6 7 8 9 7 11 12 13 12 10 8 7 6 6 5 5 5 4 4 4 4 5 5 5 5 5 4 4 5 5 5 5 4 5
2 1 -1 -0 1 3 5 5 5 8 8 7 7 7 7 6 7 6 5 5 5 6 6 7 10 11 11 8 9 8 8 7 7 7 5 4 4 4 4 3 3 5 6 6 6 6 6 5 5 5 5 4 5 5
-0 -0 0 0 1 4 6 6 4 7 9 8 7 8 8 8 7 7 5 5 6 6 8 9 10 9 8 7 5 6 6 6 6 7 6 5 4 4 4 4 5 6 6 6 6 6 6 5 3 4 4 5 5 6
2 2 1 2 4 4 5 5 6 6 6 7 7 8 8 7 8 8 8 5 7 8 9 7 7 6 5 4 5 4 5 5 6 6 6 6 5 4 4 5 5 6 6 6 6 6 6 6 5 4 5 6 6 6
4 2 5 4 6 5 6 6 7 6 7 7 8 7 9 9 9 8 7 9 9 8 7 7 7 5 4 5 5 5 4 4 3 5 5 5 6 5 6 5 6 6 6 6 6 6 6 4 4 5 5 6 6 7
2 4 5 5 7 8 9 6 9 7 10 9 8 9 10 10 8 6 9 8 8 7 6 5 5 5 6 4 4 4 3 5 7 6 6 7 7 6 6 6 6 6 7 7 5 4 4 7 6 5 5 6 7 8
2 6 7 8 8 10 7 9 8 8 8 10 11 11 9 8 6 8 9 8 8 7 7 7 6 6 7 6 5 5 4 5 6 6 6 7 7 7 7 6 6 6 6 5 4 5 5 5 5 4 5 6 7 8
8 9 10 12 8 8 9 9 9 9 11 10 10 10 9 8 10 11 11 9 7 7 7 6 7 6 7 7 8 8 6 6 6 7 7 7 7 7 7 5 4 4 3 4 5 4 5 5 5 5 5 6 7 8
13 9 12 9 8 9 9 10 10 10 9 10 9 8 8 9 10 12 9 8 8 7 7 6 6 6 7 6 6 6 5 4 5 5 5 4 4 4 5 5 5 5 3 4 4 4 4 4 5 5 6 7 9 8
13 10 7 6 7 8 8 7 7 9 10 10 9 9 9 11 12 10 8 7 7 6 5 5 5 6 7 6 5 4 4 3 3 3 3 3 3 3 4 4 5 4 4 3 3 4 4 4 5 5 6 7 7 7
8 9 10 9 9 8 10 9 10 10 10 7 8 11 12 12 11 9 8 6 5 5 5 5 5 5 5 5 4 4 4 3 3 3 3 4 3 3 3 4 5 9 5 4 4 4 4 3 4 5 6 6 7 8
9 7 8 8 8 8 8 9 9 8 8 9 11 11 10 9 7 7 6 5 4 5 6 6 6 5 4 3 3 3 3 5 5 5 6 6 6 4 3 4 4 5 6 7 11 8 4 3 4 4 5 6 8 7
7 6 7 8 9 9 8 6 7 7 7 8 8 8 8 7 6 5 5 5 6 7 6 6 6 6 6 5 5 4 3 3 3 5 6 5 4 2 2 2 2 4 5 6 6 6 9 6 7 6 7 7 7 8
5 6 7 8 9 7 6 5 5 6 7 8 7 8 9 8 6 5 6 6 5 5 6 7 6 6 6 6 6 5 5 4 4 4 4 4 3 3 2 4 4 4 4 5 6 6 6 7 7 8 7 8 8 8
6 7 8 9 8 6 5 6 7 7 7 8 8 7 7 8 9 8 6 6 7 7 7 6 6 6 5 5 5 5 8 6 6 6 6 6 6 5 5 5 5 5 5 6 6 5 5 6 7 8 8 8 8 8
6 6 6 7 7 7 6 7 7 8 8 10 10 9 8 9 11 8 6 6 7 7 6 6 6 6 6 6 6 5 7 6 9 10 10 10 10 9 6 6 6 6 6 7 6 6 5 6 7 7 8 8 8 8